Regional Weather Roundup
Issued by NWS Jackson, KY

Home | Current Version | Previous Version | Graphics & Text | Print | Product List | Glossary On
Versions: 1 2 3 4 5 6 7 8 9 10 11 12 13 14 15 16 17 18 19 20 21 22 23 24 25 26 27 28 29 30 31 32 33 34 35 36 37 38 39 40 41 42 43 44 45 46 47 48 49 50
504
ASUS43 KJKL 231910
RWRJKL

EAST KENTUCKY HOURLY WEATHER ROUNDUP
NATIONAL WEATHER SERVICE JACKSON KY
300 PM EDT MON MAY 23 2016

NOTE: "FAIR" INDICATES FEW OR NO CLOUDS BELOW 12,000 FEET WITH
NO SIGNIFICANT WEATHER AND/OR OBSTRUCTIONS TO VISIBILITY.

* THESE REPORTS ARE NOT UNDER NWS QUALITY CONTROL AND MAY NOT
  REPORT WEATHER SUCH AS PRECIPITATION AND FOG.

KYZ079-080-083-085-087-088-110-112-115-119-120-232000
...EASTERN KENTUCKY...

CITY           SKY/WX    TMP DP  RH WIND       PRES   REMARKS
JACKSON        MOSUNNY   72  48  42 CALM      30.05F
LONDON         MOSUNNY   74  47  38 VRB3      30.03F
SOMERSET*      SUNNY     73  43  33 S3        30.04S
MONTICELLO*    SUNNY     74  48  39 VRB7G18   30.03F
WILLIAMSBURG*  PTCLDY    70  45  40 NW5       30.03S
MIDDLESBORO*   MOSUNNY   74  47  37 CALM      30.02F
HARLAN APT*    MOCLDY    72  43  35 N5        30.03F
HAZARD APT*    PTCLDY    72  48  43 CALM      30.04
BLACK MTN*       N/A     61  48  63 NW6         N/A
PIKE CO APT*   PTSUNNY   65  51  59 N3        30.06F
BIG SANDY APT* MOCLDY    70  54  56 E3        30.05
MOREHEAD APT*  PTCLDY    73  48  40 CALM      30.06F
ASHLAND*       PTSUNNY   75  55  50 N3        30.01F
$$

KYZ035-036-041-042-044-050-067-078-099-232000
...CENTRAL KENTUCKY...

CITY           SKY/WX    TMP DP  RH WIND       PRES   REMARKS
MT STERLING*   MOSUNNY   72  50  46 E5        30.05F
FLEMING/MASON* MOSUNNY  N/A N/A N/A E5        30.05F
DANVILLE*      SUNNY     72  48  43 E7        30.05F
RICHMOND*      MOSUNNY   73  50  43 E7        30.03F
LEXINGTON      MOSUNNY   74  50  42 SE3       30.04F
FRANKFORT      SUNNY     75  51  43 VRB5      30.03F
LOUISVILLE     SUNNY     79  38  22 E9        30.01F
LEBANON*         N/A     73  48  40 NE5       30.03F
GLASGOW*       SUNNY     77  42  28 E10       30.01S
BOWLING GREEN  SUNNY     79  48  33 CALM      30.01S
$$

KYZ091>093-OHZ055-061-077-WVZ005-015-034-035-042-232000
...SOUTHERN OHIO/WEST VIRGINIA...

CITY           SKY/WX    TMP DP  RH WIND       PRES   REMARKS
COVINGTON      MOSUNNY   75  48  38 E6        30.03F
COLUMBUS       MOSUNNY   73  49  42 NE6G16    30.03F
DAYTON         MOSUNNY   74  48  39 VRB3      30.05F
WILMINGTON     SUNNY     73  49  42 VRB7      30.04F
HUNTINGTON       N/A     72  50  45 VRB6      30.03F
CHARLESTON     PTSUNNY   72  54  53 NW3       30.03F
PINEVILLE*     CLOUDY    65  51  60 MISG      30.08F
BECKLEY        PTSUNNY   63  47  55 N10       30.04F
BLUEFIELD      PTSUNNY   60  47  61 VRB5      30.06S
LOGAN CO APT*  MOCLDY    68  52  56 VRB6      30.04F
$$

VAZ002-007-008-TNZ017-027-036-066-071-232000
...SOUTHWEST VIRGINIA/EAST TENNESSEE...

CITY           SKY/WX    TMP DP  RH WIND       PRES   REMARKS
WISE*            N/A     68  43  40 NE7       30.09S
JONESVILLE*      N/A     73  46  38 N5        30.04
ABINGDON*      CLOUDY    66  46  46 CALM      30.05F
BRISTOL        MOSUNNY   71  48  43 VRB7      30.04F
SEVIERVILLE*   CLEAR     73  46  38 NE7       30.01S
KNOXVILLE      MOSUNNY   75  46  35 E7        30.01S
OAK RIDGE      SUNNY     76  43  30 SE8       30.01F
CROSSVILLE     SUNNY     75  41  29 VRB6      30.04F
NASHVILLE      MOSUNNY   82  46  28 VRB6      30.00F
$$

...KEY TO REMARKS...
VSB - VISIBILITY IN MILES
WCI - WIND CHILL INDEX
HX  - HEAT INDEX

$$




USA.gov is the U.S. government's official web portal to all federal, state and local government web resources and services.